Location: Batang Balui
(2.7000°N, 113.7833°E)
Time: 19:03:54
(UTC+00:00)

VELOX 1 - Pass Details

Date: 07 April 2023
Orbit: 617 x 630 km, 98.4° (Epoch: 01 June)

Event Time Altitude Azimuth Distance (km) Brightness Sun altitude
Rises 10:57:39 0° 356° (N) 2,877 ? -7.2°
Reaches altitude 10° 10:59:59 10° 346° (NNW) 1,976 ? -7.8°
Maximum altitude 11:03:49 32° 282° (WNW) 1,065 ? -8.8°
Drops below altitude 10° 11:07:41 10° 219° (SW) 1,990 ? -9.7°
Sets 11:10:04 0° 209° (SSW) 2,901 ? -10.3°
